SCP
0 0 0 0 0 0 0 0 0 0 0 0 0 0 0 0 0 0 0 0 0 0 0 0 0 0 0 0 0 0 0 0 0 0 0 0 0 0 0 0 0 0 0
0 0 0 0 0 0 0 0 0 0 0 0 0 0 0 0 0 0 0 0 0 0 0 0 0 0 0 0 0 0 0 0 0 0 0 0 0 0 0 0 0 0 0
0 0 0 0 0 0 0 0 0 0 0 0 0 0 0 0 0 0 0 0 0 0 0 0 0 0 0 0 0 0 0 0 0 0 0 0 0 0 0 0 0 0 0
0 0 0 0 0 0 0 0 0 0 0 0 0 0 0 0 0 0 0 0 0 0 0 0 0 0 0 0 0 0 0 0 0 0 0 0 0 0 0 0 0 0 0
0 0 0 0 0 0 0 0 0 0 0 0 0 0 0 0 0 0 0 0 0 0 0 0 0 0 0 0 0 0 0 0 0 0 0 0 0 0 0 0 0 0 0
0 0 0 0 0 0 0 0 0 0 0 0 0 0 0 0 0 0 0 0 0 0 0 0 0 0 0 0 0 0 0 0 0 0 0 0 0 0 0 0 0 0 0
0 0 0 0 0 0 0 0 0 0 0 0 0 0 0 0 0 0 0 0 0 0 0 0 0 0 0 0 0 0 0 0 0 0 0 0 0 0 0 0 0 0 0
0 0 0 0 0 0 0 0 0 0 0 0 0 0 0 0 0 0 0 0 0 0 0 0 0 0 0 0 0 0 0 0 0 0 0 0 0 0 0 0 0 0 0
0 0 0 0 0 0 0 0 0 0 0 0 0 0 0 0 0 0 0 0 0 0 0 0 0 0 0 0 0 0 0 0 0 0 0 0 0 0 0 0 0 0 0
0 0 0 0 0 0 0 0 0 0 0 0 0 0 0 0 0 0 0 0 0 0 0 0 0 0 0 0 0 0 0 0 0 0 0 0 0 0 0 0 0 0 0
0 0 0 0 0 0 0 0 0 0 0 0 0 0 0 0 0 0 0 0 0 0 0 0 0 0 0 0 0 0 0 0 0 0 0 0 0 0 0 0 0 0 0
0 0 0 0 0 0 0 0 0 0 0 0 0 0 0 0 0 0 0 0 0 0 0 0 0 0 0 0 0 0 0 0 0 0 0 0 0 0 0 0 0 0 0
0 0 0 0 0 0 0 0 0 0 0 0 0 0 0 0 0 0 0 0 0 0 0 0 0 0 0 0 0 0 0 0 0 0 0 0 0 0 0 0 0 0 0
0 0 0 0 0 0 0 0 0 0 0 0 0 0 0 0 0 0 0 0 0 0 0 0 0 0 0 0 0 0 0 0 0 0 0 0 0 0 0 0 0 0 0
0 0 0 0 0 0 0 0 0 0 0 0 0 0 0 0 0 0 0 0 0 0 0 0 0 0 0 0 0 0 0 0 0 0 0 0 0 0 0 0 0 0 0
0 0 0 0 0 0 0 0 0 0 0 0 0 0 0 0 0 0 0 0 0 0 0 0 0 0 0 0 0 0 0 0 0 0 0 0 0 0 0 0 0 0 0
0 0 0 0 0 0 0 0 0 0 0 0 0 0 0 0 0 0 0 0 0 0 0 0 0 0 0 0 0 0 0 0 0 0 0 0 0 0 0 0 0 0 0
0 0 0 0 0 0 0 0 0 0 0 0 0 0 0 0 0 0 0 0 0 0 0 0 0 0 0 0 0 0 0 0 0 0 0 0 0 0 0 0 0 0 0
0 0 0 0 0 0 0 0 0 0 0 0 0 0 0 0 0 0 0 0 0 0 0 0 0 0 0 0 0 0 0 0 0 0 0 0 0 0 0 0 0 0 0
0 0 0 0 0 0 0 0 0 0 0 0 0 0 0 0 0 0 0 0 0 0 0 0 0 0 0 0 0 0 0 0 0 0 0 0 0 0 0 0 0 0 0
0 0 0 0 0 0 0 0 0 0 0 0 0 0 0 0 0 0 0 0 0 0 0 0 0 0 0 0 0 0 0 0 0 0 0 0 0 0 0 0 0 0 0
0 0 0 0 0 0 0 0 0 0 0 0 0 0 0 0 0 0 0 0 0 0 0 0 0 0 0 0 0 0 0 0 0 0 0 0 0 0 0 0 0 0 0
0 0 0 0 0 0 0 0 0 0 0 0 0 0 0 0 0 0 0 0 0 0 0 0 0 0 0 0 0 0 0 0 0 0 0 0 0 0 0 0 0 0 0
0 0 0 0 0 0 0 0 0 0 0 0 0 0 0 0 0 0 0 0 0 0 0 0 0 0 0 0 0 0 0 0 0 0 0 0 0 0 0 0 0 0 0
0 0 0 0 0 0 0 0 0 0 0 0 0 0 0 0 0 0 0 0 0 0 0 0 0 0 0 0 0 0 0 0 0 0 0 0 0 0 0 0 0 0 0
0 0 0 0 0 0 0 0 0 0 0 0 0 0 0 0 0 0 0 0 0 0 0 0 0 0 0 0 0 0 0 0 0 0 0 0 0 0 0 0 0 0 0
Wind_Speed
13 13 14 13 12 12 11 11 10 10 10 10 9 9 9 8 7 7 7 7 8 7 6 6 6 5 4 4 4 4 4 2 1 2 2 3 3 5 6 5 4 4 5
12 13 13 12 11 11 11 10 9 10 9 9 8 8 8 8 7 7 7 7 6 6 5 5 5 4 5 3 3 3 2 2 1 2 2 3 3 4 5 6 5 5 5
11 12 12 11 10 10 9 8 8 9 8 8 8 8 8 7 7 6 6 5 5 4 4 4 3 4 4 3 2 2 2 1 0 1 2 2 3 3 4 4 5 4 6
10 11 10 9 8 8 8 8 8 8 8 7 7 7 7 6 6 5 5 5 4 4 3 3 2 2 2 2 2 2 1 2 1 1 2 2 3 3 3 3 5 5 5
9 9 8 7 7 7 7 7 7 7 7 6 6 6 6 5 5 4 4 4 4 4 4 3 2 2 3 2 2 2 2 2 2 2 2 2 3 3 3 3 4 6 4
8 8 7 7 7 7 6 6 7 6 6 6 6 6 6 5 7 7 5 4 4 4 4 4 3 3 5 6 6 5 3 3 3 2 2 3 4 3 3 3 3 4 4
7 6 6 6 7 6 6 6 6 5 4 5 5 5 5 6 9 8 7 4 4 3 3 3 3 3 5 5 7 7 5 5 5 4 4 5 4 3 4 5 4 3 4
6 6 5 6 6 5 5 5 4 3 3 3 3 4 4 6 8 7 6 4 3 3 3 3 3 5 5 6 6 7 6 5 4 4 6 7 7 7 5 4 4 5 6
5 5 4 5 5 5 4 3 2 2 2 2 3 3 4 5 8 7 5 3 3 4 4 4 4 5 7 8 5 6 7 6 4 5 7 9 11 11 7 3 3 3 3
4 4 4 4 4 4 3 2 2 2 2 3 3 3 3 4 7 8 6 3 4 4 4 4 5 7 9 7 3 3 6 6 8 9 7 6 5 4 3 4 3 2 2
4 4 4 4 4 3 2 2 2 3 4 3 4 3 3 4 6 8 7 3 3 4 4 5 5 10 10 8 4 2 5 7 6 5 5 6 5 4 3 2 3 4 3
5 5 4 3 2 3 4 3 4 4 4 3 3 3 2 3 5 6 8 6 4 3 3 4 6 10 9 8 5 5 5 4 3 3 4 5 5 5 5 5 3 4 6
5 5 4 4 4 3 3 4 3 3 3 2 2 2 2 3 4 6 7 8 7 3 3 6 7 8 7 6 8 9 6 4 4 4 4 4 4 5 5 4 3 2 2
5 4 3 4 3 3 3 2 3 2 2 2 1 1 2 2 3 5 5 5 6 4 4 5 6 6 6 6 6 6 5 4 3 3 4 4 5 4 4 4 3 4 3
4 3 3 3 3 3 3 2 2 1 1 1 1 1 1 2 4 6 5 4 4 3 3 3 5 5 6 6 6 6 5 6 5 5 5 5 5 5 4 4 3 2 3
4 3 2 2 2 2 2 2 2 1 0 2 3 2 2 4 6 7 6 6 6 4 3 4 4 4 5 5 5 6 5 6 6 5 5 5 5 5 4 4 3 3 3
4 3 2 2 2 2 2 1 1 2 2 1 2 2 3 5 5 4 4 5 7 5 4 3 3 4 4 4 4 4 5 6 5 5 5 5 5 4 4 4 4 3 3
3 3 3 2 2 2 2 2 1 1 1 2 3 4 4 3 4 5 4 4 4 4 3 3 3 3 4 4 4 5 5 6 5 5 5 5 5 4 4 4 4 4 4
3 2 2 2 2 2 2 2 1 1 0 1 2 3 5 4 6 7 5 3 2 2 2 2 3 3 3 4 4 4 5 5 6 5 5 5 5 4 4 5 4 5 4
2 3 3 2 2 2 2 2 2 1 1 0 1 2 2 3 3 3 3 2 1 1 2 2 3 3 3 4 4 5 5 5 6 5 5 5 5 4 5 6 5 5 4
2 2 3 2 2 2 2 2 2 2 1 0 1 1 1 1 1 1 1 1 1 1 2 2 3 3 4 4 4 5 6 5 5 5 5 5 5 5 5 5 5 4 4
3 2 2 2 2 2 2 2 2 2 1 1 1 1 1 1 0 1 1 1 1 1 1 2 2 3 3 4 4 5 5 5 5 5 5 5 5 5 5 5 5 5 4
3 3 2 2 2 3 2 2 2 2 1 0 0 1 1 0 1 1 1 1 1 1 1 1 2 3 3 3 3 4 5 5 5 6 6 6 5 5 5 5 6 6 5
3 3 4 3 3 2 2 2 1 1 1 1 1 1 1 1 1 1 1 1 0 0 1 1 2 4 6 5 4 4 4 5 6 5 6 6 6 5 5 5 5 6 5
3 3 4 4 3 3 2 2 1 1 1 1 1 1 1 1 1 1 1 1 1 1 1 2 2 3 6 7 7 6 7 8 7 6 5 4 5 5 5 5 4 5 5
3 4 4 3 3 3 3 2 2 2 2 2 2 2 2 1 1 1 1 1 1 1 1 2 3 4 6 6 7 9 8 9 8 8 5 4 4 4 5 4 6 5 6
Wind_Direction
75 79 81 80 81 82 81 80 80 78 76 75 73 72 68 64 63 69 67 66 68 62 58 65 60 54 53 43 43 46 44 48 51 314 296 305 311 323 329 329 319 314 311
81 83 84 84 83 83 81 79 80 78 73 74 73 71 68 63 61 66 68 64 67 65 59 62 55 59 55 45 46 43 37 33 26 324 310 311 305 312 317 317 320 319 313
83 85 85 84 83 83 82 80 80 80 75 71 70 69 64 60 60 61 67 67 66 65 62 65 59 61 50 35 38 34 19 22 18 301 302 300 297 308 320 317 321 317 317
84 84 83 82 83 84 84 82 80 80 78 73 70 67 63 58 56 56 62 61 57 52 51 55 56 62 47 14 10 0 350 355 343 313 296 295 291 299 305 318 328 330 322
91 87 84 83 83 84 83 82 81 79 78 74 70 61 52 51 47 57 58 59 52 45 38 28 17 41 38 13 355 335 327 324 323 317 310 307 305 313 320 319 314 321 309
94 93 91 88 84 83 84 84 83 78 72 69 65 62 51 44 44 60 72 61 52 43 25 4 352 21 11 7 358 348 319 284 289 285 289 297 293 288 292 305 316 329 316
95 96 96 94 89 86 91 87 85 80 76 74 67 64 54 35 42 50 60 64 51 37 22 3 351 353 357 347 343 346 335 302 256 240 265 274 279 280 296 302 299 292 283
96 96 100 101 97 92 89 87 84 84 83 79 72 64 55 36 38 46 51 50 43 25 8 352 338 334 344 344 338 338 331 317 289 254 253 269 272 276 262 264 288 291 278
105 104 107 109 105 98 93 88 85 93 86 82 82 69 55 27 27 39 44 27 20 6 356 352 346 337 333 342 341 334 330 328 319 295 276 276 277 276 261 241 258 277 306
120 114 107 106 106 102 100 94 91 104 99 94 78 62 54 30 21 31 35 23 11 354 344 345 350 343 335 339 331 324 325 323 332 333 331 325 311 306 276 223 240 257 287
118 105 97 98 102 102 90 77 90 94 89 78 71 50 42 29 21 25 26 26 1 342 342 342 339 339 343 350 346 290 286 298 309 317 321 332 341 345 342 299 233 229 246
114 102 93 91 94 97 91 79 78 90 87 69 56 39 20 10 10 3 7 9 360 337 330 327 324 335 350 6 13 357 345 342 337 343 348 347 342 337 330 323 286 239 238
112 104 95 82 71 77 92 94 81 79 84 70 54 27 350 346 346 353 357 357 357 349 317 321 337 357 11 19 18 18 20 15 6 3 348 331 315 307 309 321 338 332 277
117 111 103 93 81 69 72 83 92 91 87 80 64 29 345 338 348 350 348 349 353 355 346 344 1 22 30 21 15 17 18 10 1 346 327 316 318 330 347 351 348 349 347
120 118 108 102 103 89 75 72 93 112 173 156 166 181 351 341 325 331 336 337 335 333 343 12 22 17 16 11 6 4 4 6 4 352 344 341 343 348 351 346 344 340 341
125 127 130 128 122 117 105 62 41 61 49 187 200 206 252 268 303 331 352 4 12 29 58 42 26 18 12 4 357 352 354 359 351 342 343 345 343 342 340 344 345 343 335
149 154 150 147 152 152 146 132 41 357 359 324 289 280 277 300 325 349 17 43 44 50 57 40 22 7 359 354 352 346 341 338 335 338 341 342 340 338 341 345 349 345 338
146 159 165 171 173 174 174 170 155 120 14 347 355 10 9 14 27 30 41 56 40 37 38 25 8 356 350 348 346 341 335 336 342 341 341 342 343 339 342 344 346 341 329
150 158 161 162 161 163 159 155 154 150 113 353 350 4 18 39 50 44 50 55 41 22 14 6 356 348 344 341 338 335 332 333 338 336 338 339 339 337 338 339 335 334 333
154 169 156 150 149 146 149 151 148 144 138 55 358 346 352 26 28 18 29 33 27 6 353 349 345 344 340 339 337 335 335 337 341 340 336 333 331 328 331 334 334 334 329
144 147 143 133 144 151 153 156 155 152 160 164 323 314 304 44 16 356 359 359 346 338 337 337 338 339 340 338 338 338 338 335 337 334 330 329 328 327 325 324 327 330 327
151 150 148 147 141 143 146 145 146 153 161 150 341 352 49 76 14 332 325 326 328 328 331 328 335 340 338 337 335 333 331 332 334 333 327 323 321 322 324 329 336 337 340
152 152 143 135 133 136 130 132 140 147 153 184 291 323 350 347 316 302 306 313 321 348 358 346 337 340 342 337 333 326 322 321 317 313 312 314 318 321 325 329 336 339 343
161 160 152 145 139 139 143 146 149 158 172 228 265 270 274 280 293 303 305 297 260 305 347 351 344 343 345 344 335 331 325 315 308 298 298 298 307 313 320 328 336 343 344
159 159 158 159 159 160 162 167 179 194 217 238 249 252 256 253 259 282 293 264 238 265 318 347 343 342 344 345 345 341 332 325 320 315 302 296 306 317 326 336 345 351 357
165 167 166 165 168 174 179 189 205 218 231 239 240 239 239 236 239 251 261 248 248 260 283 318 335 344 345 344 344 341 337 336 337 333 325 320 333 348 351 354 1 3 6